loading
|

DIAMANT DEB, 2684

Orbit data source: Space-Track

DIAMANT DEB, 2684 is space debris in LEO originally from a launch on Wed, 15 Feb 1967 UTC launched from the Hamma Guira Space Track Range (HGSTR). Debris objects in space refer to the collection of defunct objects orbiting the Earth. Examples of debris include non-operational satellites, rocket bodies, and fragments generated from explosions, collisions, or faulty payload assembly.

Loading next visibility...
Loading greatness...
DIAMANT DEB details
Identifier
2684, 1967-014C
Orbit
LEO
Last TLE update17 hours ago
Origin
Flag of FRCNES (FR)
ManufacturerUnknown
MissionSpacecraft
Bus & MotorUnknown bus, Unknown motor
MassUnknown
Launch date (UTC)
1967-02-15 (58 years ago)
Launch vehicleUnknown
Launch site
Hamma Guira Space Track Range (HGSTR)
Object type
Payload
Rocket body
Debris
Shape & HBRUnknown
Radar Cross SectionSmall (<0.1 m²)

Expand to show TLE details & history

TLE from 17 hours ago
0 DIAMANT DEB
1  2684U 67014C   24276.90880563  .00013421  00000-0  31900-2 0  9994
2  2684  39.9576 194.3177 0464306 166.0667 195.3410 14.03935966853834
Epoch: 2024-10-02T21:48Z
Definitive object data (Epoch: 2024-10-02T21:48:40.806Z)
Latitude-0.00001°
Longitude-144.95376°
Altitude1,205.642 km
Speed7.089 km/s
True Right ascension12h 57m 16s
True Declination0° 00' 00"
Sunlit
Object was in daylight at TLE epoch
Predictive object data (real-time)
Latitude21.63305°
Longitude-120.36877°
Altitude1,112.097 km
Speed7.182 km/s
Apparent Right ascension17h 02m 12s
Apparent Declination-9° 11' 47"
Sunlit
Object is in daylight
Predictive observer data (real-time)
Local Sidereal Time08:54:29
Azimuth75.774° E
Elevation-30.195°
Doppler factor1
Orbital elements
Apogee1,219.641 km
Perigee545.407 km
Semi-major axis7,260.661 km
Eccentricity0.0464306
Inclination39.9576°
RAAN194.3177°
Arg. of periapsis166.0667°
True anomaly194.00825°
Mean anomaly195.341°
Eccentric anomaly194.6674°
Mean motion3.50816 °/min
BSTAR0.00319
Period102.62 mins
No data available

DIAMANT DEB Visibility forecast

Observer location: 39.9160978°, -105.1181434

DIAMANT DEB is not visible in the next 10 days
Span
Click to sort rows by Start time (UTC) header in descending order
Start Az.
Max El. time (UTC)
Max El. Az.
Max El.
End time (UTC)
End Az.